Overview Statistics Trail Chart Weather Telemetry Raw packets
 

This is the latest recevied weather packets stored in our database for station/object R2AKT-13. If no packets are shown the sender has not sent any weather packets the latest 10 day(s).

<< 35 36 37 38 39 40 41 >>
Time Temp. Humidity Pressure Rain* Wind** Luminosity Snow
1788230766 12.78° C 86% 992.6 hPa - 0.89 m/s, 153° - -
1788230191 12.78° C 86% 992.6 hPa - 0.89 m/s, 144° - -
1788229691 12.78° C 86% 992.6 hPa - 0.45 m/s, 155° - -
1788229176 12.78° C 86% 992.7 hPa - 0.89 m/s, 153° - -
1788228581 12.78° C 86% 992.7 hPa - 0.89 m/s, 154° - -
1788227986 12.78° C 86% 992.8 hPa - 0.89 m/s, 145° - -
1788227466 13.33° C 85% 992.9 hPa - 0.89 m/s, 160° - -
1788226916 13.33° C 85% 992.9 hPa - 0.45 m/s, 171° - -
1788226376 13.33° C 85% 992.9 hPa - 0.45 m/s, 161° - -
1788225886 13.33° C 85% 992.9 hPa - 0.89 m/s, 165° - -
1788225391 13.33° C 85% 992.9 hPa - 0.45 m/s, 154° - -
1788224866 13.33° C 85% 993 hPa - 1.34 m/s, 173° - -
1788224371 13.33° C 84% 993 hPa - 0.89 m/s, 176° - -
1788223771 13.89° C 84% 993 hPa - 1.79 m/s, 176° - -
1788223196 13.89° C 84% 993.1 hPa - 2.24 m/s, 175° - -
1788222666 14.44° C 84% 993.1 hPa - 2.24 m/s, 177° - -
1788222186 13.89° C 84% 993.2 hPa - 1.79 m/s, 178° - -
1788221706 13.89° C 83% 993.2 hPa - 1.34 m/s, 176° - -
1788221106 14.44° C 83% 993.2 hPa - 1.79 m/s, 176° - -
1788220543 14.44° C 83% 993.2 hPa - 1.79 m/s, 172° - -
1788220036 14.44° C 82% 993.2 hPa - 1.79 m/s, 174° - -
1788219446 14.44° C 82% 993.3 hPa - 1.79 m/s, 174° - -
1788218961 15° C 81% 993.3 hPa - 1.79 m/s, 177° - -
1788218391 15° C 81% 993.3 hPa - 1.79 m/s, 171° - -
1788217801 15° C 80% 993.4 hPa - 1.34 m/s, 166° - -

* Rain since midnight (hover to see other rain measurements)
** Current wind speed in m/s (hover to see current wind gust speed)